Weather History for Kecskemet, Hungary

Change the Weather History Date:

Thursday, October 24, 2013

  Actual Average (LHBP) Record (LHBP)
Temperature  
Mean Temperature 63 °F -  
Max Temperature 75 °F 56 °F 73 °F (2006)
Min Temperature 51 °F 38 °F 28 °F (1997)
Degree Days  
Heating Degree Days 2    
Growing Degree Days 13 (Base 50)    
Moisture  
Dew Point 52 °F    
Average Humidity 74    
Maximum Humidity 94    
Minimum Humidity 44    
Precipitation  
Precipitation 0.00 in - - ()
Sea Level Pressure  
Sea Level Pressure 30.14 in    
Wind  
Wind Speed 4 mph ()    
Max Wind Speed 9 mph    
Max Gust Speed -    
Visibility 3.9 miles    
Events Fog    
Averages and records for this station are not official NWS values.
T = Trace of Precipitation, MM = Missing Value Source: Averaged Metar Reports

Daily Weather History Graph

Daily Weather History Graph

Search for Another Location

Airport:

Trip Planner

Search our weather history database for the weather conditions in past years. The results will help you decide how hot, cold, wet, or windy it might be!

Date:

Astronomy

Oct. 24, 2013 Rise Set
Actual Time 7:11 AM CEST 5:37 PM CEST
Civil Twilight 6:40 AM CEST 6:09 PM CEST
Nautical Twilight 6:05 AM CEST 6:44 PM CEST
Astronomical Twilight 5:29 AM CEST 7:19 PM CEST
Moon 9:37 PM CEST (10/24) 12:08 PM CEST (10/24)
Length of Visible Light 11h 28m
Length of Day
10h 26m
Waning Gibbous, 73% of the Moon is Illuminated
Oct 24
Waning Gibbous
Oct 27
Last Quarter
Nov 3
New
Nov 10
First Quarter
Nov 17
Full

Hourly Weather History & Observations

Time (CEST) Temp. Dew Point Humidity Pressure Visibility Wind Dir Wind Speed Gust Speed Precip Events Conditions
12:15 AM 59.0 °F 51.8 °F 77% 30.09 in - South 6.7 mph - N/A   Clear
12:45 AM 59.0 °F 51.8 °F 77% 30.09 in - South 4.5 mph - N/A   Clear
1:15 AM 59.0 °F 51.8 °F 77% 30.09 in - South 6.7 mph - N/A   Clear
1:45 AM 57.2 °F 51.8 °F 82% 30.12 in - South 4.5 mph - N/A   Clear
2:15 AM 57.2 °F 51.8 °F 82% 30.12 in - South 6.7 mph - N/A   Clear
2:45 AM 57.2 °F 50.0 °F 77% 30.12 in - South 6.7 mph - N/A   Clear
3:15 AM 55.4 °F 50.0 °F 82% 30.12 in - South 6.7 mph - N/A   Clear
3:45 AM - - N/A% - 3.1 mi South 6.7 mph - N/A   Clear
4:15 AM 53.6 °F 50.0 °F 88% 30.12 in - South 6.7 mph - N/A   Clear
4:45 AM 53.6 °F 50.0 °F 88% 30.12 in - South 6.7 mph - N/A   Clear
5:15 AM 53.6 °F 50.0 °F 88% 30.12 in - South 6.7 mph - N/A   Clear
5:45 AM 53.6 °F 50.0 °F 88% 30.12 in - South 4.5 mph - N/A   Clear
6:15 AM 51.8 °F 50.0 °F 94% 30.12 in 5.0 mi SSE 2.2 mph - N/A   Unknown
6:45 AM - - N/A% - 3.1 mi South 6.7 mph - N/A   Clear
6:57 AM 51.8 °F 48.2 °F 88% 30.12 in 3.1 mi South 4.5 mph - N/A   Scattered Clouds
7:15 AM 51.8 °F 50.0 °F 94% 30.12 in 3.1 mi South 4.5 mph - N/A   Mostly Cloudy
7:45 AM 53.6 °F 50.0 °F 88% 30.15 in 3.1 mi South 4.5 mph - N/A   Scattered Clouds
8:15 AM 53.6 °F 50.0 °F 88% 30.15 in 3.7 mi SSE 4.5 mph - N/A   Unknown
8:45 AM 55.4 °F 51.8 °F 88% 30.15 in 4.3 mi SSE 2.2 mph - N/A   Unknown
9:15 AM 57.2 °F 53.6 °F 88% 30.15 in 5.0 mi SSE 4.5 mph - N/A   Unknown
9:45 AM - - N/A% - 6.2 mi South 6.7 mph - N/A   Clear
10:15 AM 62.6 °F 53.6 °F 72% 30.18 in - South 4.5 mph - N/A   Clear
10:45 AM 66.2 °F 55.4 °F 68% 30.18 in - South 6.7 mph - N/A   Clear
11:15 AM 68.0 °F 55.4 °F 64% 30.18 in - SSE 6.7 mph - N/A   Clear
11:45 AM 69.8 °F 55.4 °F 60% 30.18 in - South 6.7 mph - N/A   Clear
12:15 PM 71.6 °F 55.4 °F 57% 30.15 in - South 8.9 mph - N/A   Clear
12:45 PM - - N/A% - 6.2 mi Variable 4.5 mph - N/A   Clear
1:15 PM 75.2 °F 53.6 °F 47% 30.15 in - SSW 2.2 mph - N/A   Clear
1:45 PM 75.2 °F 51.8 °F 44% 30.15 in - WNW 6.7 mph - N/A   Clear
2:15 PM 75.2 °F 51.8 °F 44% 30.15 in - WNW 6.7 mph - N/A   Clear
2:45 PM 75.2 °F 51.8 °F 44% 30.15 in - WNW 6.7 mph - N/A   Clear
3:15 PM 75.2 °F 51.8 °F 44% 30.15 in - WNW 4.5 mph - N/A   Clear
3:45 PM - - N/A% - 3.1 mi Variable 4.5 mph - N/A   Clear
4:15 PM 75.2 °F 51.8 °F 44% 30.15 in - West 4.5 mph - N/A   Clear
4:45 PM 73.4 °F 53.6 °F 50% 30.15 in - NW 2.2 mph - N/A   Clear
5:15 PM 69.8 °F 53.6 °F 56% 30.15 in - NW 2.2 mph - N/A   Clear
5:45 PM 66.2 °F 53.6 °F 64% 30.15 in - Calm Calm - N/A   Clear
6:15 PM 64.4 °F 53.6 °F 68% 30.15 in - East 2.2 mph - N/A   Clear
6:45 PM - - N/A% - 3.1 mi Variable 4.5 mph - N/A   Clear
7:15 PM 59.0 °F 51.8 °F 77% 30.15 in - Calm Calm - N/A   Clear
7:45 PM 59.0 °F 51.8 °F 77% 30.15 in - Calm Calm - N/A   Clear
8:15 PM 57.2 °F 51.8 °F 82% 30.15 in - Calm Calm - N/A   Clear
8:45 PM 59.0 °F 51.8 °F 77% 30.15 in - Calm Calm - N/A   Clear
9:15 PM 57.2 °F 53.6 °F 88% 30.15 in - Calm Calm - N/A   Clear
9:45 PM - - N/A% - 3.1 mi Variable 4.5 mph - N/A Fog Clear
10:15 PM 57.2 °F 51.8 °F 82% 30.15 in - Calm Calm - N/A   Clear
10:45 PM 57.2 °F 51.8 °F 82% 30.15 in - Calm Calm - N/A   Clear
11:15 PM 57.2 °F 51.8 °F 82% 30.18 in - Calm Calm - N/A   Clear
11:45 PM 57.2 °F 53.6 °F 88% 30.18 in - Calm Calm - N/A   Clear